Regional Weather Roundup
Issued by NWS Sioux Falls, SD

Home | Current Version | Previous Version | Text Only | Print | Product List | Glossary On
Versions: 1 2 3 4 5 6 7 8 9 10 11 12 13 14 15 16 17 18 19 20 21 22 23 24 25 26 27 28 29 30 31 32 33 34 35 36 37 38 39 40 41 42 43 44 45 46 47 48 49 50
000
ASUS43 KFSD 222310
RWRFSD

WEATHER ROUNDUP FOR SE SOUTH DAKOTA/SW MINNESOTA/NW IOWA
NATIONAL WEATHER SERVICE SIOUX FALLS SD
500 PM CST THU FEB 22 2018

NOTE: "FAIR" INDICATES FEW OR NO CLOUDS BELOW 12,000 FEET WITH NO
SIGNIFICANT WEATHER AND OR OBSTRUCTIONS TO VISIBILITY.


SDZ038>040-050-052>070-230000-
SOUTHEAST SOUTH DAKOTA

CITY           SKY/WX    TMP DP  RH WIND       PRES   REMARKS
BROOKINGS      SNOW      23  19  86 E10       30.21F VSB 1/2 WCI  12
CHAMBERLAIN    LGT SNOW  23  22  95 E9        30.18R WCI  13
HURON          SNOW      23  21  92 E7        30.21F VSB 1/2 WCI  15
MADISON        LGT SNOW  23  23 100 E14       30.18F VSB 1   WCI  11
MITCHELL       LGT SNOW  23  21  92 SE10      30.20F VSB 3/4 WCI  12
SIOUX FALLS    HVY SNOW  24  22  91 E7        30.18F VSB 1/4 WCI  16
WINNER         LGT SNOW  23  19  85 SE10      30.14R FOG     WCI  12
YANKTON        LGT SNOW  25  22  88 E5        30.19F FOG     WCI  19
$$

MNZ071-072-080-081-089-090-097-098-230000-
SOUTHWEST MINNESOTA

CITY           SKY/WX    TMP DP  RH WIND       PRES   REMARKS
FAIRMONT       LGT SNOW  27  25  92 SE16      30.26F FOG     WCI  15
JACKSON        LGT SNOW  27  25  93 E16       30.23F WCI  14
LUVERNE        LGT SNOW  27  23  86 SE7       30.20F WCI  19
MARSHALL       LGT SNOW  25  21  86 E15       30.26F VSB 3/4 WCI  12
MONTEVIDEO     LGT SNOW  25  23  93 E10       30.29F VSB 1   WCI  15
PIPESTONE      LGT SNOW  21  19  93 E12       30.20S WCI   9
REDWOOD FALLS  LGT SNOW  24  22  91 NE9       30.29F VSB 3/4 WCI  14
TRACY          LGT SNOW  24  23  95 E12       30.25F VSB 3/4 WCI  13
WORTHINGTON    MIX PCPN  26  24  92 E15       30.20F FOG     WCI  14
$$

IAZ001>003-012>014-020>022-031-032-NEZ013-014-SDZ071-230000-
NORTHWEST IOWA

CITY           SKY/WX    TMP DP  RH WIND       PRES   REMARKS
CHEROKEE       CLOUDY    28  26  95 SE9       30.20F WCI  19
DENISON        CLOUDY    28  28 100 SE9       30.20F WCI  20
ESTHERVILLE    LGT SNOW  25  24  96 E16       30.23F FOG     WCI  12
LE MARS        CLOUDY    27  27 100 E7G13     30.20F WCI  19
ORANGE CITY    MIX PCPN  27  27 100 SE8       30.20R WCI  18
SHELDON        MIX PCPN  25  25 100 SE14      30.18F WCI  13
SIOUX CITY     CLOUDY    27  25  92 SE9       30.20F WCI  18
SPENCER        LGT SNOW  27  24  89 E14       30.22F FOG     WCI  16
STORM LAKE     CLOUDY    27  27 100 SE16      30.19F FOG     WCI  14
$$

ABBREVIATIONS USED IN REMARKS
   TC - TEMPERATURE IN CELSIUS
  WCI - WIND CHILL INDEX
   HX - HEAT INDEX
  VSB - VISIBILITY





USA.gov is the U.S. government's official web portal to all federal, state and local government web resources and services.